Theta_e
297 296 296 296 298 298 298 298 297 297 295 294 293 292 291 290 289 289 288 288 287 287 287 286 286 286 286 286 286 286 286 286 286 287 287 287 287 288 288 289 288 289 288
295 294 295 296 296 296 296 296 295 294 293 293 292 291 290 289 289 288 288 287 287 286 286 285 285 285 285 285 285 285 285 285 285 286 286 286 286 286 287 287 288 288 287
293 294 294 294 294 294 294 293 292 292 291 290 290 289 289 288 288 287 287 286 286 285 285 284 284 284 284 284 285 284 284 284 284 285 285 285 285 285 285 285 285 286 287
291 291 291 291 292 292 291 291 291 290 290 289 289 288 288 287 287 286 285 284 283 283 283 283 283 284 284 284 284 284 284 284 284 284 285 285 285 285 284 283 284 285 287
289 289 289 290 290 290 289 289 289 288 288 288 287 287 286 285 285 284 283 283 283 283 283 283 283 283 283 284 284 284 284 284 284 284 284 284 284 284 283 283 284 284 285
288 287 288 288 288 288 288 287 287 287 287 286 285 285 284 284 283 283 283 283 283 283 283 283 283 283 283 283 284 284 284 284 283 283 283 283 283 283 282 282 282 283 283
285 285 285 285 286 286 286 285 285 285 285 284 284 283 283 283 282 283 284 284 283 283 282 283 283 283 283 283 284 285 285 284 284 283 282 282 282 282 283 282 282 282 283
282 282 282 283 283 283 283 283 283 283 283 283 282 282 282 282 282 283 283 283 283 283 283 283 283 283 283 283 283 283 284 284 284 284 283 282 282 282 282 282 282 282 282
281 281 281 281 281 281 281 281 281 281 281 281 281 281 281 281 281 282 283 283 283 283 283 283 283 283 283 283 283 282 282 282 282 282 283 283 283 283 283 282 281 281 281
280 280 280 280 280 279 279 280 280 280 280 280 280 280 280 280 281 282 283 283 282 282 282 282 283 283 283 283 283 283 282 281 281 281 282 282 283 283 284 283 283 282 282
280 279 279 279 279 278 278 278 278 278 278 278 278 279 279 279 280 281 282 283 283 283 283 283 283 283 283 283 283 283 282 282 282 282 282 283 283 283 283 283 283 283 283
278 278 277 277 277 277 277 277 277 277 277 277 277 278 278 278 279 279 280 282 282 282 282 282 282 282 283 283 284 284 284 284 283 283 282 283 283 283 283 283 283 283 283
277 277 276 276 276 276 276 276 276 276 276 276 277 278 278 279 279 280 281 282 282 282 282 282 282 282 282 282 282 283 283 283 284 283 283 282 283 283 283 282 282 282 282
276 275 275 275 275 275 275 275 275 276 276 276 277 277 278 279 279 279 279 280 280 280 280 280 279 279 279 279 280 280 280 280 281 281 282 282 282 281 281 281 281 282 282
275 275 275 275 275 275 275 275 275 275 276 276 277 277 277 278 278 278 278 278 278 278 278 278 278 277 277 277 275 277 278 279 279 279 280 280 280 280 280 280 279 280 280
275 274 275 275 274 274 274 274 274 276 276 277 277 277 277 277 277 278 279 279 280 280 279 278 278 277 277 276 276 275 275 276 277 278 278 278 278 278 278 279 279 279 279
275 275 275 274 274 274 274 274 274 274 274 275 277 278 279 279 279 279 280 280 280 280 280 279 278 278 277 277 276 275 274 273 272 274 276 275 276 276 277 277 277 278 278
274 274 274 274 274 274 273 273 273 272 273 275 275 275 275 275 276 277 278 279 279 279 279 278 278 277 276 276 276 275 275 274 273 272 272 272 273 274 274 275 275 276 276
274 274 274 273 273 273 273 272 272 272 272 273 274 274 274 274 274 275 276 277 277 277 277 277 277 276 275 275 274 274 273 273 272 272 272 271 271 271 272 272 273 273 274
274 274 273 273 273 272 272 272 272 271 272 271 272 273 273 272 273 273 273 273 273 274 274 273 274 273 273 272 272 272 272 272 272 271 271 271 271 270 270 271 271 271 272
273 273 272 272 272 272 271 271 271 270 270 270 271 271 270 270 271 272 272 272 272 272 272 272 271 271 270 270 270 269 269 269 269 270 270 270 270 269 270 270 270 270 270
272 272 271 271 271 270 271 270 270 269 269 269 270 271 270 270 270 269 269 270 270 270 269 269 269 268 268 268 268 267 267 267 267 267 268 268 269 269 269 268 269 269 269
270 270 270 270 270 270 269 269 269 269 268 268 269 269 269 269 268 268 268 269 269 269 268 268 268 268 268 268 267 266 266 266 266 266 266 266 266 267 267 267 267 267 267
268 268 268 268 268 268 267 267 268 267 267 267 267 267 267 268 268 268 268 268 268 268 268 267 267 267 267 267 267 266 266 265 265 265 265 265 265 266 266 266 266 267 267
267 267 267 267 266 266 266 266 266 266 266 266 266 267 267 267 267 268 268 267 267 267 267 266 266 266 266 266 266 266 266 265 265 265 264 264 265 265 265 265 265 265 265
266 265 265 265 265 265 265 264 265 265 265 266 266 266 267 266 266 266 266 266 266 266 266 266 266 265 265 265 265 265 265 265 265 265 265 265 264 264 264 265 265 265 265
Wind_Speed
31 32 34 36 37 34 33 31 30 28 29 29 28 26 24 22 19 18 17 17 18 17 16 15 14 13 14 15 15 14 14 15 8 10 13 14 13 12 13 14 16 18 15
30 30 31 34 33 30 28 26 25 25 25 26 26 24 23 21 19 18 18 18 19 19 19 18 17 16 17 17 17 17 18 19 15 12 14 18 21 20 21 23 18 15 15
26 30 28 29 29 28 26 25 24 24 23 21 21 22 22 21 20 18 18 19 20 21 21 21 20 18 19 20 20 19 19 19 20 16 12 13 17 14 17 13 11 10 12
24 27 30 29 28 27 25 24 23 21 20 20 19 19 19 18 18 18 18 19 17 17 18 18 18 18 19 19 19 19 20 19 19 16 13 13 17 15 16 14 13 8 8
25 25 25 24 23 23 22 21 20 19 18 16 17 17 18 18 18 18 18 18 18 18 18 18 18 18 19 19 20 20 20 20 16 13 13 12 12 13 11 4 5 8 9
20 21 22 22 21 20 19 18 18 18 17 17 17 18 19 19 17 14 17 19 17 18 18 18 18 17 18 18 19 18 20 22 17 13 13 14 14 11 12 9 10 3 3
17 16 14 15 17 17 17 17 16 16 15 16 17 17 18 19 15 14 15 17 17 16 18 18 17 17 17 18 19 19 21 20 19 20 18 15 15 14 13 13 12 10 7
12 13 11 12 13 12 13 14 13 13 14 15 16 16 17 17 16 16 16 18 17 17 18 17 17 16 15 16 18 20 22 22 21 21 24 23 22 19 17 14 15 15 15
12 12 10 11 12 11 10 10 10 11 13 14 13 14 16 17 16 16 15 16 16 17 18 18 17 17 16 15 17 19 21 23 23 25 22 21 19 18 18 15 19 12 7
7 9 9 8 9 10 9 9 8 9 7 9 9 11 10 11 11 12 13 17 17 16 18 18 18 19 17 17 20 21 21 18 17 18 24 24 22 24 23 22 22 15 13
7 7 7 7 7 6 6 7 7 8 7 7 7 8 10 11 11 11 12 14 15 13 14 15 15 15 17 17 19 23 23 19 21 20 22 19 18 20 22 23 24 25 20
8 8 7 5 5 4 5 5 5 6 6 6 6 7 7 7 9 11 11 13 13 13 14 12 12 11 13 15 16 19 18 18 24 24 23 24 23 20 20 20 22 27 28
6 5 4 3 3 2 3 4 5 5 4 4 5 4 4 4 6 7 5 8 8 8 9 8 8 9 10 11 12 11 11 13 19 15 15 18 17 16 15 16 16 17 20
5 5 4 4 4 4 4 5 4 5 5 5 5 5 5 6 7 7 6 6 4 5 5 5 6 7 8 11 14 15 16 16 14 12 11 9 10 11 14 16 19 20 19
3 3 4 4 4 5 5 5 5 4 4 6 6 6 7 7 7 5 6 7 7 7 8 8 10 9 8 9 9 8 9 11 16 15 14 12 12 13 17 16 18 20 18
2 3 4 5 5 5 5 4 4 4 3 4 5 4 4 5 4 4 6 9 10 11 11 11 11 11 11 10 9 9 8 8 6 7 10 10 11 11 12 12 12 14 16
5 4 5 5 4 3 3 3 4 3 4 5 6 7 8 9 8 8 9 11 13 12 17 14 15 14 14 13 13 11 12 10 10 10 12 12 12 13 13 14 12 12 14
8 8 7 7 6 7 8 8 7 8 7 6 6 7 9 8 8 9 10 12 16 14 17 18 19 18 17 17 17 17 17 14 14 15 15 16 15 15 16 18 18 18 17
11 11 10 10 11 12 12 11 11 11 12 13 13 12 10 11 11 11 11 16 18 19 20 20 20 20 19 18 18 17 17 17 17 17 19 19 19 19 20 19 18 16 16
12 12 12 12 12 12 12 13 13 14 15 17 18 18 14 13 13 12 12 13 16 19 20 20 20 19 19 18 18 18 18 18 18 18 19 21 21 21 22 22 19 19 20
14 13 14 14 15 15 15 15 16 16 18 19 21 18 14 14 17 18 19 19 20 20 19 19 19 19 18 18 18 17 18 19 19 20 19 20 20 23 24 24 23 22 21
10 11 11 13 12 14 15 16 17 18 20 21 22 20 16 17 21 23 23 23 23 21 21 20 19 17 16 15 15 16 17 18 18 19 20 20 20 20 22 23 24 24 22
11 11 13 14 15 16 17 18 19 20 22 22 23 23 23 24 23 21 21 20 18 18 16 16 17 17 16 16 15 16 17 19 18 17 18 19 19 20 20 22 24 24 23
16 18 20 21 21 22 22 23 23 23 23 24 24 23 24 23 23 21 20 18 17 17 16 17 17 18 17 16 15 16 16 15 14 15 16 18 18 18 19 19 21 24 25
22 23 23 24 24 23 23 23 23 23 23 23 24 25 24 23 23 22 21 19 19 19 19 18 18 18 18 17 16 15 14 14 15 14 14 16 18 18 19 19 19 19 21
24 25 26 26 25 25 25 25 26 25 25 25 25 25 25 24 24 23 22 20 20 19 18 18 18 17 16 16 15 15 15 15 15 14 14 15 17 17 18 18 17 18 18
Wind_Direction
186 184 187 192 199 200 198 199 201 205 203 199 199 201 206 208 210 214 215 217 217 218 224 228 227 225 234 235 238 236 236 236 246 254 268 275 277 274 269 269 274 275 280
182 182 185 190 188 188 189 191 194 193 193 195 197 202 206 207 210 213 214 217 220 221 227 229 233 235 237 237 237 241 242 245 241 250 261 266 270 281 277 271 272 264 264
176 175 175 174 172 173 176 176 179 182 184 191 196 199 202 206 210 217 225 230 231 235 237 243 244 238 239 241 240 240 240 243 246 247 257 267 272 274 282 281 268 252 251
162 161 157 161 163 164 167 171 176 182 185 190 196 201 207 214 220 226 232 234 232 232 233 235 236 236 235 234 237 239 242 240 241 240 249 258 268 273 274 278 283 273 252
144 146 148 151 156 159 165 169 175 180 184 195 203 209 215 220 225 226 230 231 230 232 234 237 237 237 237 238 238 235 236 234 229 233 244 249 253 255 255 268 271 300 285
134 137 146 150 154 159 165 172 180 183 188 197 207 215 214 219 224 218 229 231 232 235 239 242 240 239 239 235 234 236 241 232 226 226 244 244 246 237 232 242 289 310 316
130 134 143 151 157 163 172 183 187 190 193 201 208 214 220 225 220 219 223 237 237 240 242 245 246 242 240 237 235 238 236 233 239 244 232 228 235 238 248 263 265 264 256
134 135 147 158 159 166 177 186 188 191 197 205 211 215 222 230 228 229 229 234 245 245 245 244 246 248 243 240 242 241 242 242 240 239 242 255 260 264 267 272 275 281 279
135 140 148 167 162 163 176 183 192 197 202 209 218 224 228 233 230 230 229 232 239 242 246 247 246 247 247 238 244 248 254 254 253 242 244 250 258 256 260 266 262 266 283
132 136 154 158 161 170 171 174 187 199 204 207 207 221 225 233 226 225 226 233 233 236 247 251 250 248 248 237 237 242 246 247 253 254 245 244 245 249 249 247 256 239 248
135 142 150 158 148 162 170 175 188 188 184 195 203 217 225 227 229 225 227 234 233 232 238 245 248 244 241 240 237 241 248 259 252 247 256 260 253 249 247 242 245 249 239
147 143 139 137 136 156 162 156 174 193 189 195 204 223 231 232 233 226 224 231 237 240 243 249 250 245 244 250 252 253 254 256 248 249 245 253 257 252 251 249 245 248 250
128 123 121 129 136 146 164 179 180 185 186 192 199 200 178 190 187 194 187 215 219 224 239 237 242 237 240 238 242 250 254 256 258 253 241 247 258 271 268 258 262 263 258
146 153 151 156 178 174 175 176 172 184 193 197 193 193 176 191 190 200 205 214 201 212 227 231 243 250 257 266 267 264 265 264 265 267 264 258 255 256 259 262 264 262 264
145 145 150 161 175 186 191 196 200 203 209 219 224 221 213 222 227 233 232 229 244 251 252 248 249 258 272 290 287 271 270 279 260 257 261 265 268 270 265 265 260 260 252
187 189 194 188 195 198 196 191 202 220 226 229 236 250 224 234 233 231 239 243 247 241 228 238 250 258 270 285 296 296 280 279 286 259 255 262 270 272 267 260 259 260 251
212 218 225 224 228 271 300 312 316 274 248 242 237 239 248 265 255 256 251 253 250 247 256 263 257 259 271 278 284 286 289 295 277 263 260 261 259 255 254 259 259 261 261
232 227 225 230 240 242 244 245 251 258 270 263 248 246 244 261 279 276 266 262 258 250 256 259 265 270 274 277 278 277 282 284 280 275 268 262 255 249 247 248 248 250 254
239 233 233 231 232 234 235 242 246 253 258 266 273 264 263 264 261 257 250 250 260 261 260 262 266 268 270 275 277 276 278 281 283 277 270 266 262 254 252 252 252 250 250
255 256 254 252 251 252 256 261 266 268 273 277 279 282 291 293 284 282 271 264 261 263 267 268 270 272 274 274 273 274 275 274 273 269 266 266 264 257 254 256 251 246 243
271 271 272 268 265 268 267 265 266 267 267 269 272 278 280 274 280 281 281 278 276 275 274 274 276 274 272 273 274 273 273 274 274 274 271 267 264 258 254 253 254 253 253
259 264 262 263 267 263 264 265 265 263 263 266 273 279 276 265 266 271 274 275 276 275 276 276 274 270 270 271 273 275 276 278 280 279 277 274 270 266 260 255 252 249 247
272 272 270 270 271 270 265 263 262 262 266 270 278 284 287 286 284 281 279 279 278 274 269 265 266 268 269 271 272 274 273 274 279 279 276 274 271 267 262 255 250 244 238
279 278 275 274 273 270 270 271 272 272 272 275 278 279 281 282 282 280 279 277 274 270 267 264 261 262 266 268 270 270 272 279 280 276 273 271 268 263 258 254 250 245 244
279 276 274 274 274 272 274 273 272 272 270 269 271 273 275 275 275 274 275 276 275 272 268 265 263 263 263 264 265 264 265 267 270 273 267 264 263 261 257 253 249 244 242
272 270 268 268 267 266 265 266 267 268 266 267 268 269 270 271 272 275 276 276 275 273 271 266 262 261 259 259 260 262 262 263 263 264 265 261 257 255 252 249 245 238 234